Probability
0 0 0 0 0 0 0 0 0 0 0 1 2 3 4 4 2 0 1 1 1 0 0 0 0 0 0 0 0 0 0 0 0 0 0 0 0 0 0 0 0 0 0 0
0 0 0 0 0 0 0 0 0 0 0 0 2 3 4 4 2 0 0 0 0 0 0 0 0 0 0 0 0 0 0 0 0 0 0 0 0 0 0 0 0 0 0 0
0 0 0 0 0 0 0 0 0 0 0 0 2 3 4 4 2 1 0 0 0 0 0 0 0 0 0 0 0 0 0 0 0 0 0 0 0 0 0 0 0 0 0 0
0 0 0 1 1 1 0 0 1 1 1 1 1 3 4 4 3 1 0 0 0 0 0 0 0 0 0 0 0 0 0 0 0 0 0 0 0 0 0 0 0 0 0 0
0 0 0 1 2 1 1 1 2 3 3 2 1 2 3 3 4 2 0 0 0 0 0 0 0 0 0 0 0 0 0 0 0 0 0 0 0 0 0 0 0 0 0 0
0 0 0 1 1 1 2 2 2 3 3 1 0 1 2 3 3 2 0 0 0 0 0 0 0 0 0 0 0 0 0 0 0 0 0 0 0 0 0 0 0 0 0 0
0 0 0 1 1 1 2 2 1 1 2 1 0 1 2 3 3 2 1 0 0 0 0 0 0 0 0 0 0 0 0 0 0 0 0 0 0 0 0 0 0 0 0 0
0 0 0 1 2 2 1 1 0 1 2 1 1 1 3 3 3 2 1 0 0 0 0 0 0 0 0 0 0 0 0 0 0 0 0 0 0 0 0 0 0 0 0 0
0 0 0 1 1 1 1 0 0 1 2 3 2 3 3 3 3 2 1 0 0 0 0 0 0 0 0 0 0 0 0 0 0 0 0 0 0 0 0 0 0 0 0 0
0 0 0 0 0 0 0 0 0 2 3 3 3 3 3 3 2 1 0 0 0 0 0 0 0 0 0 0 0 0 0 0 0 0 0 0 0 0 0 0 0 0 0 0
0 0 0 0 0 0 0 0 0 1 2 3 2 1 2 2 1 0 0 0 0 0 0 0 0 0 0 0 0 0 0 0 0 0 0 0 0 0 0 0 0 0 0 0
0 0 0 0 0 0 0 0 0 0 1 2 1 1 1 2 1 0 0 0 0 0 0 0 0 0 0 0 0 0 0 0 0 0 0 0 0 0 0 0 0 0 0 0
0 0 0 0 0 0 0 0 0 0 0 0 0 0 1 1 0 0 0 0 0 0 0 0 0 0 0 0 0 0 0 0 0 0 0 0 0 0 0 0 0 0 0 0
0 0 0 0 0 0 0 0 0 0 0 0 0 0 0 0 0 0 0 0 0 0 0 0 0 0 0 0 0 0 0 0 0 0 0 0 0 0 0 0 0 0 0 0
0 0 0 0 0 0 0 0 0 0 0 0 0 0 0 0 0 0 0 0 0 0 0 0 0 0 0 0 0 0 0 0 0 0 0 0 0 0 0 0 0 0 0 0
0 0 0 0 0 0 0 0 0 0 0 0 0 0 0 0 0 0 0 0 0 0 0 0 0 0 0 0 0 0 0 0 0 0 0 0 0 0 0 0 0 0 0 0
0 0 0 0 0 0 0 0 0 0 0 0 0 0 0 0 0 0 0 0 0 0 0 0 0 0 0 0 0 0 0 0 0 0 0 0 0 0 0 0 0 0 0 0
0 0 0 0 0 0 0 0 0 0 0 0 0 0 0 0 0 0 0 0 0 0 0 0 0 0 0 0 0 0 0 0 0 0 0 0 0 0 0 0 0 0 0 0
0 0 0 0 0 0 0 0 0 0 0 0 0 0 0 0 0 0 0 0 0 0 0 0 0 0 0 0 0 0 0 0 0 0 0 0 0 0 0 0 0 0 0 0
0 0 0 0 0 0 0 0 0 0 0 0 0 0 0 0 0 0 0 0 0 0 0 0 0 0 0 0 0 0 0 0 0 0 0 0 0 0 0 0 0 0 0 0
0 0 0 0 0 0 0 0 0 0 0 0 0 0 0 0 0 0 0 0 0 0 0 0 0 0 0 0 0 0 0 0 0 0 0 0 0 0 0 0 0 0 0 0
0 0 0 0 0 0 0 0 0 0 0 0 0 0 0 0 0 0 0 0 0 0 0 0 0 0 0 0 0 0 0 0 0 0 0 0 0 0 0 0 0 0 0 0
0 0 0 0 0 0 0 0 0 0 0 0 0 0 0 0 0 0 0 0 0 0 0 0 0 0 0 0 0 0 0 0 0 0 0 0 0 0 0 0 0 0 0 0
0 0 0 0 0 0 0 0 0 0 0 0 0 0 0 0 0 0 0 0 0 0 0 0 0 0 0 0 0 0 0 0 0 0 0 0 0 0 0 0 0 0 0 0
0 0 0 0 0 0 0 0 0 0 0 0 0 0 0 0 0 0 0 0 0 0 0 0 0 0 0 0 0 0 0 0 0 0 0 0 0 0 0 0 0 0 0 0
0 0 0 0 0 0 0 0 0 0 0 0 0 0 0 0 0 0 0 0 0 0 0 0 0 0 0 0 0 0 0 0 0 0 0 0 0 0 0 0 0 0 0 0
0 0 0 0 0 0 0 0 0 0 0 0 0 0 0 0 0 0 0 0 0 0 0 0 0 0 0 0 0 0 0 0 0 0 0 0 0 0 0 0 0 0 0 0
Wind_Speed
3 2 3 4 4 5 5 6 7 5 2 2 2 4 8 10 11 11 10 10 8 7 6 5 4 4 3 4 3 3 3 4 4 4 4 4 4 4 4 4 4 4 4 4
4 4 4 3 2 3 4 4 4 3 1 5 5 5 8 9 10 10 10 9 9 7 6 5 4 3 3 3 3 3 3 4 4 4 4 4 4 4 4 5 5 5 5 6
5 4 6 3 2 3 2 2 4 3 2 4 5 6 8 9 9 10 10 9 8 7 6 5 4 3 3 3 3 3 4 4 4 4 5 4 4 4 5 5 6 6 6 7
4 5 5 3 3 2 1 2 3 3 4 3 5 6 6 6 8 9 9 9 8 7 6 5 4 4 3 3 3 3 3 4 4 4 4 4 5 5 5 5 6 6 6 7
4 4 2 3 1 3 3 1 2 2 5 6 7 7 6 5 6 7 8 8 8 7 6 5 4 4 3 3 3 3 4 4 4 4 4 4 5 5 5 5 6 6 6 7
4 4 1 4 4 4 4 3 3 2 4 6 6 3 5 7 8 9 9 8 8 7 6 5 4 4 3 3 3 4 4 4 4 3 4 5 5 4 4 5 6 6 7 7
4 3 3 5 3 4 4 4 4 2 3 4 1 5 8 10 10 10 10 9 8 7 6 5 5 4 4 4 4 4 3 4 4 4 4 5 5 4 4 5 6 7 7 7
3 3 3 5 2 3 5 4 3 3 4 5 7 9 10 10 11 11 10 9 8 7 6 5 5 5 5 5 4 3 4 4 4 4 4 4 4 4 4 4 6 6 6 6
3 4 5 3 4 4 2 3 3 4 5 7 9 10 11 10 10 10 10 8 7 7 7 6 5 4 6 5 4 4 4 5 5 5 4 4 4 4 4 3 4 4 5 5
2 4 4 3 4 4 4 5 4 5 6 7 9 10 10 10 9 9 9 8 7 7 7 6 5 5 5 5 4 4 5 5 4 5 5 5 2 3 3 3 3 4 4 5
3 4 4 4 4 5 6 6 6 7 7 7 10 10 10 9 9 8 8 7 6 6 7 7 6 5 5 5 4 5 5 5 5 5 5 4 5 5 4 6 5 4 3 3
2 4 3 5 5 6 6 6 7 8 8 8 9 10 10 9 8 8 8 7 7 7 7 7 7 6 5 4 4 5 5 4 4 4 4 4 5 6 8 6 6 6 7 5
4 5 6 7 7 7 7 7 7 8 9 9 9 9 10 9 8 8 8 8 8 7 7 7 7 6 5 5 4 4 5 4 3 4 4 4 4 5 5 5 4 4 4 5
6 6 7 7 7 7 8 8 9 9 9 9 9 9 9 9 9 9 8 8 8 7 7 7 6 6 5 5 4 4 5 4 3 3 3 3 3 3 3 4 5 5 5 3
5 5 7 8 8 8 9 9 9 9 9 9 9 9 9 9 9 8 8 8 8 8 7 7 7 6 5 5 4 4 4 3 3 2 3 3 3 2 3 3 3 4 4 6
7 8 9 9 9 9 9 9 8 9 9 9 8 8 8 8 8 8 8 8 8 8 7 7 6 6 5 5 5 3 3 3 2 2 3 3 3 3 3 3 3 3 3 3
9 9 9 9 9 9 8 8 8 8 9 9 8 8 9 8 8 8 8 8 7 7 7 6 6 6 6 5 5 4 5 6 6 4 3 3 2 2 2 2 2 3 2 3
6 7 7 8 8 8 8 8 8 8 8 8 9 9 9 8 8 8 7 7 7 7 7 7 6 6 6 6 4 3 4 4 5 4 3 3 2 2 2 2 3 3 3 6
7 7 7 7 7 7 7 7 8 7 8 8 9 9 8 7 7 8 8 8 8 7 7 7 6 6 6 5 4 4 4 4 4 4 3 4 4 4 3 3 3 3 3 3
8 8 8 8 7 7 7 7 8 7 7 8 8 8 8 8 8 8 8 7 6 5 7 8 9 7 6 6 6 5 5 5 5 4 4 4 5 4 4 4 4 3 3 3
9 8 8 8 8 7 7 8 7 8 8 8 8 8 8 8 8 8 7 7 7 7 7 8 7 7 7 6 7 6 5 5 5 4 4 4 4 4 4 4 4 4 4 4
8 8 8 8 7 6 6 7 7 7 8 7 8 8 8 8 8 8 7 5 6 8 8 8 8 6 5 6 7 7 6 6 5 5 5 5 5 5 5 5 5 5 5 5
8 8 7 7 7 7 7 7 7 7 7 8 8 8 8 7 7 7 7 7 7 9 8 7 7 9 7 9 8 7 7 7 7 6 6 6 6 6 6 6 6 6 6 6
8 7 7 6 6 7 7 7 6 6 7 7 7 7 7 6 6 6 5 7 8 9 9 7 10 11 10 10 9 8 8 8 8 8 8 8 7 7 7 7 7 7 7 8
8 7 7 7 6 5 6 6 7 7 7 6 7 8 7 6 5 5 6 8 10 11 10 10 13 13 12 11 10 9 9 8 7 7 8 8 8 9 9 8 8 8 8 8
7 6 6 5 4 3 4 5 5 5 5 5 5 6 6 5 6 6 6 8 11 11 10 9 11 13 12 12 11 11 9 8 9 10 11 10 10 10 9 9 12 10 9 9
7 6 5 5 5 4 4 4 4 4 5 5 5 5 5 6 6 7 8 8 8 10 10 9 10 11 12 12 11 11 10 10 10 10 10 10 10 10 10 12 10 10 10 10
Wind_Direction
260 255 245 246 249 252 254 278 281 277 263 104 120 147 147 145 144 144 143 141 138 134 129 125 118 106 91 78 70 65 61 56 49 44 45 42 42 44 42 39 44 52 52 52
218 217 216 236 268 263 274 289 282 269 81 71 94 124 143 151 154 154 151 146 142 141 138 132 125 113 98 85 68 68 67 61 49 45 51 50 47 49 51 50 48 54 53 51
219 208 223 223 305 286 271 321 306 306 64 111 126 142 152 157 160 158 152 147 146 143 138 133 125 115 101 87 77 77 70 59 52 53 54 49 45 49 53 55 57 55 54 58
221 218 230 83 49 353 289 65 12 47 83 99 114 117 122 142 155 154 149 147 144 140 133 128 128 123 108 102 99 92 78 67 62 58 58 58 54 53 52 55 58 59 57 60
241 224 182 138 50 332 285 135 56 91 106 110 120 129 115 117 132 137 138 136 134 132 131 133 129 129 134 134 114 97 82 73 72 71 70 67 69 61 57 62 65 66 62 61
241 248 222 72 32 331 269 171 91 112 134 142 169 188 124 129 128 124 125 128 130 130 129 127 130 141 144 129 110 96 85 83 81 84 81 74 72 66 68 69 69 70 64 58
243 242 85 43 357 281 267 54 70 106 146 159 118 55 111 129 126 125 127 130 133 132 129 130 138 141 133 121 103 95 96 94 84 84 88 87 82 76 78 81 80 76 72 65
252 245 84 31 0 8 30 48 74 100 124 119 103 108 123 130 131 132 133 135 136 133 126 127 131 132 123 108 104 109 109 101 93 90 90 96 95 89 86 89 93 88 85 80
6 48 69 55 48 51 49 72 81 100 118 129 127 130 133 135 135 134 136 138 139 135 130 128 132 135 123 116 116 111 105 97 96 96 91 95 103 107 106 100 95 97 95 86
128 110 103 89 81 76 73 80 88 108 127 133 130 134 137 136 135 136 138 141 143 139 133 131 131 126 121 121 123 121 112 107 103 102 99 90 83 90 93 92 94 97 91 91
145 127 132 108 93 95 96 99 101 107 117 126 132 137 137 137 136 137 138 138 140 136 131 130 132 132 127 128 132 123 115 113 110 108 101 97 78 47 46 59 40 35 64 86
95 124 127 114 112 111 113 113 115 118 120 125 133 136 137 135 135 139 139 141 141 138 137 137 139 136 134 133 134 130 124 121 118 120 122 122 117 105 60 54 59 49 29 24
92 105 107 119 121 117 116 117 119 122 125 128 132 136 138 136 139 143 145 147 144 142 142 142 143 141 141 143 137 129 125 127 133 133 135 134 126 123 123 115 90 76 64 50
128 133 134 134 128 124 121 120 118 118 122 127 133 139 141 142 145 148 149 148 148 149 147 147 145 143 142 142 140 134 134 131 147 140 137 135 133 134 133 133 136 133 133 127
151 148 135 133 131 131 132 132 130 128 129 132 139 145 148 149 149 149 150 150 152 156 154 152 151 151 154 156 157 153 155 148 147 132 144 145 162 167 141 128 125 128 136 146
140 136 141 144 145 147 148 146 141 137 139 140 143 147 151 151 148 149 153 156 162 165 161 160 159 158 162 163 164 164 148 118 176 184 171 173 180 170 158 152 148 146 156 149
152 153 156 157 158 159 158 154 148 146 147 148 149 151 153 153 153 154 159 162 163 162 161 167 168 164 167 168 179 177 162 154 186 211 186 183 183 173 172 186 175 171 160 105
159 155 157 158 161 161 160 157 154 153 154 153 152 155 160 163 163 159 160 162 164 166 169 171 170 173 175 175 185 190 176 179 187 189 184 188 196 205 200 195 187 195 179 154
151 150 151 152 156 157 158 157 157 155 155 159 161 163 166 167 167 167 168 173 177 177 172 168 164 190 183 176 201 198 195 189 188 189 192 178 214 219 214 208 205 207 206 193
149 150 152 153 155 155 154 154 154 154 160 165 166 167 170 172 174 176 179 187 190 178 168 169 179 190 189 183 218 212 198 202 200 198 202 207 215 218 222 221 219 219 221 222
150 151 154 153 154 157 155 156 159 161 166 171 174 175 174 175 179 182 189 189 181 182 176 170 195 195 194 185 207 219 207 208 212 215 219 221 224 226 226 228 228 231 231 231
151 152 156 152 154 155 157 164 167 169 171 179 181 180 178 180 184 190 200 202 175 171 191 192 198 189 182 204 214 219 219 218 223 226 229 233 234 235 237 240 239 237 239 241
150 151 155 156 158 157 162 170 172 175 180 185 187 189 192 192 192 195 195 192 189 176 203 204 168 157 180 222 231 229 227 228 231 233 234 235 236 238 240 243 246 248 249 251
153 153 155 156 158 161 167 172 173 179 185 191 190 191 195 198 200 208 207 175 181 178 210 185 163 176 204 231 234 233 230 230 232 236 237 238 240 241 243 245 248 251 252 254
155 155 157 163 168 167 165 169 174 181 189 191 190 192 201 210 214 204 200 190 179 190 210 188 183 194 216 231 233 234 234 234 239 247 246 246 249 249 248 249 250 253 255 256
159 164 160 172 171 174 173 177 181 182 188 190 192 192 198 203 211 208 204 205 197 201 218 206 195 201 221 230 232 235 239 234 229 236 245 249 250 253 255 255 255 255 256 256
167 166 169 176 179 185 184 184 189 191 194 195 196 198 200 203 207 211 212 212 204 203 215 219 215 212 218 225 230 232 235 239 242 243 244 243 246 249 251 252 254 255 255 254